Flag for U.S.A. Weather past 2 weeks in Thousand Oaks, California, U.S.A.

Now
72 °F

Clear.


Feels Like: 75 °F
Forecast: 66 / 93 °F
Wind: No wind

Location: Camarillo Airport

Current Time: Aug 28, 2015 at 12:41:29 AM

Latest Report: Aug 27, 2015 at 11:55 PM


Visibility: 10 mi

Pressure: 29.90 "Hg

Humidity: 66%

Dew point: 60 °F

Location of Thousand OaksLocation

Historic Weather in Thousand Oaks — Graph

°F

Thousand Oaks temperature yesterday

Maximum temperature yesterday: 90 °F (at 2:55 PM)
Minimum temperature yesterday: 68 °F (at 3:55 AM)
Average temperature yesterday: 78 °F

Past Weeks' High & Low Weather Summary

 TemperatureHumidityPressure
High90 °F (Aug 27, 2:55 PM)90% (Aug 17, 5:55 AM)30.00 "Hg (Aug 17, 5:55 AM)
Low59 °F (Aug 13, 6:55 AM)36% (Aug 14, 2:55 PM)29.83 "Hg (Aug 16, 6:55 PM)
Average73 °F69%29.92 "Hg
* Reported Aug 12 10:55 PM — Aug 27 10:55 PM, Thousand Oaks, Weather by CustomWeather, © 2015

Note: Actual official high and low records may vary slightly from our data, if they occured in-between our weather recording intervals... More about our weather records

Advertising

Thousand Oaks weather history for previous 24 hours

 ConditionsComfort  
Time TempWeatherWind HumidityBarometerVisibility
10:55 PM
Thu, Aug 27
76 °FClear.No wind58%29.90 "Hg10 mi
9:55 PM75 °FClear.5 mph60%29.91 "Hg10 mi
8:55 PM78 °FClear.No wind54%29.90 "Hg10 mi
7:55 PM78 °FSunny.No wind54%29.88 "Hg10 mi
6:55 PM80 °FSunny.7 mph49%29.88 "Hg10 mi
5:55 PM84 °FSunny.7 mph38%29.89 "Hg10 mi
4:55 PM86 °FSunny.8 mph45%29.90 "Hg10 mi
3:55 PM88 °FSunny.10 mph40%29.91 "Hg10 mi
2:55 PM90 °FSunny.9 mph39%29.94 "Hg10 mi
1:55 PM89 °FSunny.12 mph39%29.96 "Hg10 mi
12:55 PM88 °FSunny.12 mph42%29.98 "Hg9 mi
11:55 AM86 °FSunny.12 mph46%29.99 "Hg7 mi
10:55 AM87 °FSunny.6 mph39%30.00 "Hg9 mi
9:55 AM81 °FSunny.No wind51%30.00 "Hg9 mi
8:55 AM76 °FSunny.No wind62%30.00 "Hg7 mi
7:55 AM72 °FSunny.3 mph66%29.99 "Hg8 mi
6:55 AM68 °FPassing clouds.5 mph73%29.98 "Hg8 mi
5:55 AM69 °FClear.No wind73%29.98 "Hg9 mi
4:55 AM69 °FClear.No wind79%29.96 "Hg8 mi
3:55 AM68 °FClear.No wind78%29.96 "Hg7 mi
2:55 AM71 °FClear.No wind78%29.96 "Hg7 mi
1:55 AM70 °FClear.N/A73%29.96 "Hg7 mi
12:55 AM70 °FClear.3 mph76%29.97 "Hg7 mi
Weather by CustomWeather, © 2015

See weather overviewHow to use our weather pages